Starlink 11119

operational
NORAD ID: 60121 Int'l Des: 2024-118 Owner: SPXS Country: US Constellation: starlink
LEOCIRCULAR

About Starlink 11119

Description loading...

Live Position

Loading 3D Globe...

Upcoming Passes

Altitude History

Altitude vs Time

uPlot chart will show altitude changes over time

Two-Line Element Set

1 60121U 24118J 25259.27970519 .00002900 00000-0 28812-4 0 9995
2 60121 53.1584 0.7893 0000953 87.1197 272.9930 15.69685835 70606
Epoch: Sep 16, 2025 • Age: 11 hours

Current Status

Altitude 363.6 km
Velocity 7.70 km/s
Sub-Earth Point 43.80°N, 143.29°E
Launch Date Jun 24, 2024
Age 1.2 years
Type internet

Technical Details

Classification Payload
Mass 960.00 kg
Dry Mass 910.00 kg
Total Mass 960.00 kg
Length 0.30 m
Diameter 4.10 m
Span 29.00 m
Shape Box + pan
Manufacturer SPXS
Bus Type Starlink V2MD
Phase Status In Orbit
Owner/State SPXS/US

Large Constellations

Loading constellations...